Temp
-10 -10 -9 -9 -10 -10 -10 -11 -10 -10 -10 -10 -10 -11 -12 -12 -12 -12 -12 -12 -12 -12 -11 -11 -11 -11 -11 -11 -11 -11 -10 -9 -9 -10 -10 -10 -11 -11 -10 -10 -11 -11 -11 -12 -12
-11 -11 -11 -11 -10 -10 -11 -11 -11 -11 -10 -11 -11 -11 -10 -11 -12 -12 -12 -12 -12 -11 -11 -11 -11 -12 -11 -11 -11 -10 -10 -9 -10 -11 -11 -11 -11 -10 -10 -10 -10 -11 -12 -12 -11
-10 -10 -10 -11 -11 -11 -10 -11 -11 -12 -12 -11 -10 -10 -10 -10 -11 -12 -12 -12 -12 -11 -11 -12 -12 -11 -11 -11 -11 -10 -9 -10 -10 -11 -11 -11 -10 -11 -10 -10 -10 -11 -12 -12 -12
-10 -10 -10 -10 -10 -10 -10 -10 -11 -11 -11 -11 -11 -11 -11 -10 -10 -10 -11 -12 -12 -12 -12 -12 -12 -12 -12 -11 -11 -11 -10 -11 -10 -11 -11 -11 -11 -9 -11 -10 -11 -12 -12 -11 -11
-10 -10 -10 -10 -10 -10 -10 -10 -10 -10 -10 -10 -10 -11 -11 -11 -10 -11 -10 -11 -12 -12 -12 -13 -13 -13 -12 -12 -12 -10 -10 -11 -11 -11 -12 -11 -10 -9 -10 -10 -12 -12 -12 -11 -10
-10 -10 -10 -10 -10 -10 -10 -10 -10 -10 -10 -10 -10 -10 -10 -10 -11 -11 -11 -11 -12 -12 -13 -13 -13 -13 -13 -12 -12 -11 -10 -11 -11 -11 -12 -11 -10 -10 -10 -11 -12 -12 -11 -11 -10
-10 -9 -9 -9 -9 -9 -9 -9 -9 -10 -10 -10 -10 -10 -9 -9 -11 -11 -11 -11 -11 -12 -12 -13 -13 -13 -12 -12 -12 -12 -11 -11 -11 -11 -11 -12 -9 -10 -11 -11 -11 -11 -11 -11 -10
-10 -10 -9 -9 -9 -9 -9 -9 -9 -9 -9 -9 -10 -10 -8 -9 -10 -11 -12 -12 -12 -12 -12 -13 -13 -13 -13 -12 -12 -12 -11 -11 -10 -11 -11 -12 -8 -10 -11 -11 -12 -11 -11 -10 -10
-10 -9 -9 -9 -9 -9 -9 -9 -9 -9 -9 -9 -9 -9 -9 -9 -10 -11 -11 -11 -13 -12 -12 -13 -13 -13 -13 -12 -12 -11 -10 -10 -11 -10 -12 -12 -10 -10 -11 -11 -12 -12 -11 -10 -10
-9 -9 -9 -9 -9 -9 -9 -8 -9 -9 -9 -9 -9 -9 -9 -9 -10 -11 -11 -11 -12 -12 -12 -12 -12 -12 -11 -11 -8 -9 -10 -10 -10 -11 -12 -12 -10 -11 -11 -11 -12 -12 -11 -10 -11
-9 -9 -9 -9 -9 -9 -9 -9 -9 -8 -8 -9 -9 -9 -9 -10 -9 -10 -11 -11 -12 -12 -11 -12 -13 -10 -10 -11 -11 -12 -11 -11 -11 -11 -12 -12 -12 -11 -11 -11 -12 -11 -10 -11 -11
-10 -9 -9 -9 -9 -9 -9 -10 -11 -10 -10 -11 -11 -9 -10 -11 -9 -10 -10 -12 -12 -12 -13 -12 -10 -10 -12 -12 -12 -12 -12 -11 -11 -12 -12 -12 -11 -11 -11 -11 -12 -11 -10 -11 -11
-10 -10 -10 -11 -12 -13 -15 -17 -16 -17 -14 -16 -15 -13 -12 -11 -10 -12 -11 -12 -12 -13 -12 -11 -8 -12 -13 -12 -12 -12 -11 -12 -13 -13 -13 -13 -11 -11 -11 -11 -11 -11 -10 -11 -11
-12 -13 -15 -18 -19 -19 -20 -20 -20 -20 -19 -19 -19 -18 -17 -14 -13 -13 -12 -12 -12 -12 -13 -12 -12 -11 -13 -12 -12 -12 -13 -13 -13 -13 -12 -13 -11 -10 -10 -11 -11 -11 -11 -11 -11
-17 -19 -20 -21 -21 -21 -22 -22 -22 -22 -21 -21 -21 -20 -19 -18 -17 -15 -15 -15 -13 -12 -13 -10 -11 -11 -11 -12 -12 -12 -13 -13 -13 -13 -12 -11 -11 -8 -10 -11 -10 -11 -11 -12 -10
-21 -21 -22 -22 -23 -22 -23 -23 -23 -24 -22 -23 -23 -23 -22 -21 -21 -18 -17 -17 -15 -14 -13 -13 -12 -12 -11 -12 -13 -12 -12 -12 -13 -13 -11 -11 -10 -8 -10 -10 -11 -11 -11 -10 -10
-22 -22 -23 -23 -23 -23 -24 -24 -24 -24 -24 -24 -24 -24 -24 -23 -23 -21 -19 -18 -16 -15 -13 -13 -12 -12 -12 -12 -13 -12 -12 -13 -12 -13 -10 -11 -11 -10 -10 -10 -10 -10 -10 -10 -10
-23 -23 -24 -24 -24 -25 -25 -25 -25 -25 -25 -25 -24 -25 -25 -23 -23 -23 -21 -20 -18 -16 -15 -13 -13 -12 -11 -11 -11 -12 -12 -12 -12 -12 -12 -11 -10 -10 -11 -11 -10 -10 -11 -10 -10
-24 -25 -25 -25 -26 -26 -26 -26 -26 -26 -26 -25 -26 -25 -25 -24 -23 -22 -22 -20 -19 -18 -16 -14 -13 -13 -13 -12 -12 -11 -11 -12 -12 -12 -12 -11 -11 -10 -11 -10 -11 -11 -11 -11 -11
-25 -25 -26 -27 -27 -26 -27 -27 -27 -26 -26 -26 -26 -26 -25 -24 -23 -22 -22 -21 -20 -19 -16 -14 -13 -13 -13 -13 -12 -12 -12 -12 -12 -12 -11 -10 -10 -10 -11 -11 -11 -11 -11 -11 -10
-25 -25 -26 -27 -27 -26 -27 -27 -26 -26 -26 -27 -26 -25 -25 -24 -23 -22 -22 -22 -21 -20 -17 -16 -13 -14 -14 -11 -12 -11 -11 -11 -12 -12 -11 -10 -10 -11 -11 -12 -11 -11 -11 -10 -11
-26 -26 -26 -27 -27 -27 -27 -27 -27 -27 -27 -26 -27 -26 -25 -24 -23 -22 -22 -21 -21 -20 -18 -17 -15 -14 -12 -12 -12 -12 -12 -12 -12 -11 -11 -11 -10 -10 -11 -11 -12 -12 -11 -10 -11
-25 -26 -26 -26 -27 -27 -27 -27 -27 -26 -26 -27 -26 -26 -25 -25 -24 -23 -22 -22 -21 -20 -19 -17 -16 -15 -14 -13 -12 -12 -12 -11 -12 -12 -11 -10 -11 -11 -12 -12 -11 -11 -11 -10 -11
-25 -25 -26 -26 -27 -27 -27 -27 -27 -27 -27 -26 -26 -26 -25 -25 -25 -23 -22 -21 -21 -21 -20 -17 -15 -14 -13 -12 -11 -11 -12 -12 -12 -11 -10 -10 -12 -12 -12 -12 -11 -11 -11 -11 -12
-25 -25 -25 -26 -26 -26 -26 -26 -26 -26 -27 -27 -27 -26 -25 -25 -24 -24 -23 -21 -20 -20 -19 -16 -16 -14 -13 -13 -12 -12 -12 -12 -11 -11 -10 -11 -12 -12 -12 -12 -11 -11 -11 -12 -12
-25 -25 -25 -26 -26 -26 -26 -26 -26 -26 -26 -26 -26 -26 -26 -25 -25 -25 -24 -21 -21 -20 -18 -17 -16 -15 -14 -13 -13 -12 -12 -11 -12 -11 -11 -11 -12 -12 -12 -11 -11 -11 -11 -11 -11
-25 -25 -25 -25 -25 -26 -26 -26 -26 -27 -27 -26 -26 -26 -26 -25 -25 -24 -23 -22 -21 -20 -19 -18 -17 -15 -15 -14 -13 -12 -12 -11 -11 -11 -11 -11 -12 -13 -12 -12 -11 -11 -12 -12 -11
Height
5797 5798 5797 5797 5797 5799 5800 5801 5803 5804 5806 5810 5812 5816 5820 5823 5826 5830 5837 5841 5835 5834 5836 5842 5849 5851 5852 5853 5855 5856 5853 5860 5867 5867 5870 5868 5865 5862 5861 5861 5862 5859 5857 5851 5847
5793 5793 5792 5791 5791 5791 5791 5791 5793 5794 5797 5799 5801 5805 5808 5812 5815 5819 5830 5827 5824 5826 5830 5833 5839 5841 5839 5843 5843 5846 5846 5853 5863 5860 5859 5858 5858 5857 5854 5855 5859 5853 5851 5844 5839
5786 5786 5786 5785 5784 5783 5783 5784 5785 5785 5787 5788 5791 5795 5798 5800 5804 5809 5813 5818 5816 5816 5820 5821 5825 5829 5831 5835 5834 5839 5837 5850 5852 5853 5847 5850 5850 5848 5848 5851 5854 5846 5843 5838 5832
5780 5779 5778 5777 5777 5777 5776 5776 5775 5776 5777 5779 5781 5784 5788 5790 5792 5797 5802 5808 5811 5810 5809 5811 5813 5817 5821 5824 5830 5828 5831 5836 5844 5843 5837 5841 5841 5844 5840 5847 5844 5838 5832 5827 5826
5772 5770 5769 5768 5767 5766 5765 5764 5765 5766 5767 5769 5771 5773 5777 5779 5784 5786 5792 5798 5800 5802 5801 5800 5802 5807 5810 5817 5817 5815 5821 5827 5830 5831 5830 5832 5834 5833 5835 5842 5834 5829 5825 5822 5820
5762 5760 5758 5757 5756 5755 5754 5754 5754 5755 5756 5757 5758 5760 5763 5766 5774 5776 5777 5783 5785 5788 5791 5791 5793 5799 5800 5802 5803 5809 5807 5812 5814 5818 5826 5822 5826 5819 5833 5832 5825 5822 5818 5816 5815
5752 5750 5747 5745 5743 5741 5740 5739 5740 5741 5742 5742 5744 5745 5750 5757 5759 5765 5762 5767 5772 5775 5778 5780 5783 5784 5788 5791 5794 5796 5796 5799 5803 5812 5814 5818 5815 5816 5824 5821 5815 5815 5810 5810 5810
5738 5735 5733 5730 5727 5725 5724 5723 5723 5724 5725 5727 5729 5732 5737 5740 5744 5750 5749 5751 5755 5760 5766 5768 5771 5774 5775 5778 5782 5786 5787 5787 5796 5803 5806 5806 5804 5812 5817 5811 5809 5808 5804 5805 5804
5724 5719 5715 5711 5708 5706 5704 5703 5703 5704 5706 5707 5711 5717 5724 5724 5731 5734 5736 5739 5741 5746 5750 5754 5757 5764 5766 5769 5771 5772 5775 5780 5787 5795 5796 5797 5794 5803 5806 5801 5801 5801 5800 5798 5798
5712 5706 5700 5694 5690 5686 5683 5682 5681 5681 5682 5683 5689 5699 5704 5706 5710 5718 5719 5723 5728 5732 5734 5740 5744 5749 5754 5755 5753 5765 5769 5774 5777 5785 5787 5788 5783 5787 5795 5792 5793 5794 5794 5793 5793
5694 5686 5680 5674 5668 5663 5660 5656 5655 5657 5656 5658 5664 5670 5678 5682 5688 5697 5702 5706 5710 5717 5722 5729 5729 5734 5746 5750 5757 5762 5763 5765 5770 5776 5776 5777 5772 5774 5783 5784 5784 5786 5788 5788 5789
5676 5668 5660 5650 5643 5637 5632 5626 5622 5624 5633 5629 5634 5642 5649 5654 5668 5673 5678 5688 5694 5703 5713 5714 5720 5737 5741 5744 5749 5752 5753 5755 5760 5763 5760 5761 5761 5764 5771 5775 5776 5779 5782 5783 5784
5656 5646 5636 5626 5618 5613 5606 5601 5597 5596 5598 5614 5606 5612 5620 5628 5636 5647 5654 5667 5680 5688 5696 5704 5722 5729 5730 5735 5739 5742 5745 5751 5749 5752 5749 5748 5747 5753 5761 5765 5769 5773 5775 5778 5777
5634 5623 5614 5607 5600 5593 5591 5584 5580 5580 5578 5591 5586 5588 5592 5595 5610 5620 5630 5643 5659 5674 5684 5694 5707 5710 5718 5720 5727 5732 5743 5741 5740 5739 5740 5738 5730 5747 5756 5757 5763 5768 5769 5772 5770
5615 5606 5599 5590 5586 5580 5576 5570 5568 5567 5568 5572 5564 5571 5575 5577 5579 5594 5609 5617 5637 5654 5664 5686 5688 5696 5706 5713 5725 5729 5732 5732 5731 5729 5729 5733 5727 5744 5751 5755 5761 5761 5764 5764 5766
5601 5594 5588 5580 5572 5569 5563 5559 5559 5559 5559 5558 5557 5560 5563 5563 5564 5578 5590 5598 5621 5636 5654 5668 5678 5690 5703 5709 5717 5718 5723 5722 5722 5723 5720 5729 5726 5737 5747 5749 5753 5755 5758 5760 5760
5589 5582 5574 5567 5562 5555 5550 5548 5548 5546 5550 5548 5550 5551 5553 5555 5556 5562 5572 5584 5600 5616 5635 5650 5660 5675 5685 5692 5702 5704 5711 5712 5717 5716 5718 5725 5721 5738 5742 5745 5747 5750 5754 5755 5756
5579 5571 5563 5555 5547 5542 5539 5536 5535 5535 5537 5538 5538 5541 5542 5546 5552 5554 5561 5573 5586 5602 5619 5633 5646 5661 5675 5683 5692 5700 5709 5710 5713 5714 5718 5719 5720 5736 5737 5740 5743 5747 5750 5750 5752
5571 5563 5555 5546 5539 5536 5534 5531 5529 5528 5529 5529 5531 5532 5537 5540 5545 5548 5554 5562 5571 5588 5601 5619 5636 5653 5666 5675 5687 5693 5694 5709 5707 5707 5714 5712 5725 5732 5734 5737 5740 5745 5745 5748 5750
5567 5559 5550 5541 5537 5534 5533 5531 5528 5527 5527 5525 5525 5527 5530 5534 5540 5543 5547 5554 5564 5572 5587 5609 5623 5641 5654 5666 5676 5683 5694 5694 5695 5699 5706 5712 5721 5728 5731 5734 5739 5741 5742 5744 5747
5563 5557 5549 5541 5537 5534 5532 5530 5528 5526 5525 5522 5520 5521 5524 5527 5532 5535 5541 5551 5554 5566 5581 5598 5611 5627 5639 5653 5665 5671 5676 5682 5689 5694 5700 5711 5719 5725 5727 5730 5736 5737 5739 5742 5742
5560 5556 5549 5541 5538 5533 5532 5530 5528 5525 5523 5520 5518 5518 5520 5523 5527 5528 5536 5540 5550 5559 5570 5585 5599 5617 5637 5648 5660 5668 5674 5682 5686 5694 5702 5710 5717 5719 5723 5728 5733 5735 5737 5739 5739
5559 5554 5547 5542 5537 5533 5530 5529 5526 5524 5521 5519 5517 5517 5518 5520 5523 5526 5533 5541 5545 5554 5562 5576 5588 5607 5622 5635 5648 5654 5665 5672 5677 5686 5694 5704 5713 5714 5720 5726 5730 5733 5736 5737 5736
5560 5554 5547 5541 5535 5531 5528 5526 5524 5522 5519 5517 5516 5515 5516 5518 5519 5522 5531 5537 5544 5550 5555 5567 5582 5600 5619 5634 5642 5652 5656 5661 5669 5679 5690 5698 5708 5711 5718 5721 5726 5729 5732 5734 5733
5560 5555 5548 5542 5536 5532 5528 5525 5523 5522 5519 5516 5514 5513 5514 5516 5517 5520 5525 5531 5538 5543 5553 5566 5580 5596 5611 5621 5633 5641 5652 5658 5662 5677 5686 5696 5702 5708 5713 5717 5723 5728 5729 5731 5732
5562 5557 5551 5544 5539 5534 5529 5525 5521 5519 5518 5515 5513 5512 5511 5512 5515 5515 5519 5525 5531 5541 5549 5561 5573 5589 5605 5616 5627 5635 5645 5650 5658 5671 5682 5691 5696 5703 5708 5715 5721 5725 5726 5729 5730
5565 5559 5554 5548 5542 5537 5532 5526 5520 5515 5515 5513 5512 5511 5509 5509 5511 5512 5515 5521 5531 5539 5545 5557 5568 5585 5600 5609 5621 5630 5640 5647 5655 5668 5674 5684 5698 5699 5703 5710 5716 5720 5725 5728 5729
Wind_Speed
38 39 38 37 36 36 36 36 39 44 48 50 49 60 59 56 54 59 58 44 49 53 58 53 41 41 41 40 45 44 47 40 34 31 29 31 32 36 37 33 31 34 36 44 47
32 34 35 37 39 39 38 39 39 40 46 49 50 53 54 58 62 63 53 55 59 60 57 56 55 55 57 52 53 51 51 41 29 27 32 36 40 38 38 36 23 37 41 49 51
31 34 37 39 40 40 41 43 43 43 44 46 49 52 52 54 58 64 63 62 63 64 63 64 61 61 62 51 53 51 49 40 35 29 39 37 38 39 37 31 28 39 41 43 44
32 35 37 39 40 41 43 44 45 47 47 48 48 48 48 51 53 55 60 70 70 69 67 66 66 64 58 54 43 51 50 49 41 36 43 36 38 34 39 26 33 38 44 45 40
33 34 36 38 40 43 45 46 47 47 48 49 52 53 55 54 50 54 52 54 58 63 64 66 66 62 55 49 52 52 51 49 50 40 41 41 36 35 36 23 37 42 41 41 36
37 39 41 43 44 46 47 47 49 51 51 52 53 53 54 53 52 55 57 54 55 58 62 64 64 60 56 52 52 47 49 50 52 49 38 42 34 42 30 28 38 41 42 41 38
44 45 47 48 50 52 54 55 55 55 54 55 56 57 54 51 53 52 57 57 55 53 58 63 63 64 62 58 53 51 53 52 52 47 44 42 35 39 31 36 41 42 44 42 38
47 48 51 52 54 55 56 57 58 59 61 61 61 59 55 58 58 54 56 57 57 57 54 63 68 68 68 64 58 56 58 60 53 50 48 48 38 40 31 37 36 39 44 36 30
52 55 57 58 58 59 60 61 61 63 65 67 68 67 63 64 62 62 61 59 59 58 60 58 64 66 66 65 64 64 62 61 57 52 54 52 47 39 33 36 35 36 37 30 25
54 56 59 62 63 65 67 68 69 69 68 68 69 69 70 71 69 64 65 64 59 59 64 61 61 62 61 64 61 57 58 55 55 55 60 57 53 51 37 39 34 33 33 29 27
55 57 60 63 66 68 71 74 77 77 77 76 75 77 75 79 77 73 69 68 66 61 58 60 65 58 54 56 58 59 60 58 58 54 54 51 53 51 36 35 33 31 29 28 24
59 63 67 71 75 79 81 81 81 83 79 77 78 80 77 83 80 82 79 72 70 66 59 60 57 47 51 52 51 52 53 53 49 45 47 48 48 46 37 35 33 28 28 26 27
68 72 75 75 75 74 67 63 65 63 75 57 65 72 73 79 85 87 86 78 71 69 66 61 45 44 48 44 44 41 39 35 37 33 41 45 50 47 38 36 33 26 28 23 25
73 72 67 57 53 53 49 50 51 51 54 46 49 52 57 68 76 86 88 83 77 71 67 63 55 51 46 47 44 42 25 23 25 29 39 42 52 41 36 37 32 23 26 22 27
62 56 50 48 45 45 43 43 42 41 43 39 43 38 42 51 62 72 80 81 76 73 71 64 64 58 49 44 34 30 27 25 27 34 40 39 45 33 29 24 23 24 25 26 22
50 47 45 43 44 43 43 42 39 39 37 33 35 30 30 36 42 55 68 75 72 67 68 64 62 56 48 45 37 38 35 34 34 37 41 34 39 30 14 22 19 20 26 20 21
46 44 44 45 44 41 40 38 36 39 33 34 30 30 30 30 33 38 56 65 71 72 69 67 67 61 57 55 50 47 43 44 39 38 34 27 37 13 12 6 17 22 21 20 19
45 43 42 40 37 31 27 27 29 30 30 31 32 28 27 29 20 30 47 54 64 69 69 68 67 65 59 54 51 47 40 42 35 31 29 25 32 22 13 10 15 17 18 21 18
38 36 36 36 23 14 16 16 13 14 18 23 21 25 26 28 25 20 40 54 65 68 71 69 65 60 55 50 45 42 41 31 33 32 21 28 18 13 14 18 20 12 18 16 16
28 30 37 26 12 15 11 15 15 13 13 16 17 19 23 30 28 23 34 48 65 70 71 70 69 62 55 50 46 43 37 39 38 34 27 25 21 13 18 20 18 18 18 16 13
24 30 32 25 15 9 12 15 15 15 13 15 12 14 18 28 33 22 33 35 57 68 70 70 70 65 60 57 51 50 47 45 39 36 30 22 19 11 17 20 14 19 21 16 8
22 27 31 25 19 20 17 19 19 19 18 14 10 9 15 26 37 33 38 22 42 64 70 70 70 63 57 55 49 45 44 41 38 33 28 18 13 13 20 22 18 19 22 15 7
22 28 27 24 15 15 16 15 18 20 15 12 13 8 11 20 34 34 31 46 36 51 71 70 69 65 60 56 54 53 44 46 46 39 32 22 16 15 26 23 21 17 19 13 7
24 29 27 26 21 19 15 18 18 18 14 9 8 8 8 13 23 34 32 31 38 47 56 71 70 63 58 54 54 50 48 47 45 41 31 26 22 23 27 26 23 19 17 11 5
27 27 29 27 25 25 18 15 14 12 17 13 7 8 9 8 19 34 30 28 38 42 64 66 65 62 56 57 54 52 44 46 45 37 29 23 30 30 28 26 20 20 14 9 7
27 26 28 28 26 25 25 21 16 12 8 9 8 9 10 10 11 19 31 31 31 43 56 65 65 61 57 54 53 51 46 45 43 32 27 28 35 36 30 24 21 20 12 10 7
27 28 28 25 27 29 32 32 23 16 9 12 10 6 13 10 10 17 35 34 27 38 47 62 65 60 58 56 51 50 45 44 43 29 30 38 33 35 30 26 22 19 10 10 7
Wind_Direction
250 254 260 261 259 258 255 252 248 244 241 239 238 238 242 237 234 239 236 242 246 246 249 250 245 242 243 253 243 241 247 251 257 264 261 262 267 279 281 282 298 301 304 301 297
261 259 258 259 258 257 257 257 255 246 242 243 241 240 240 241 236 240 234 238 245 245 249 253 252 255 255 259 253 245 249 252 265 258 258 262 262 274 281 285 306 301 304 302 293
270 268 267 267 265 264 264 263 260 258 247 241 242 242 243 242 240 240 236 238 246 250 252 255 259 260 259 261 254 251 257 256 254 249 255 260 257 265 279 288 304 299 298 294 286
274 273 271 270 266 264 264 264 264 262 259 252 244 244 243 243 244 242 239 238 243 254 258 260 259 263 262 259 254 252 256 257 258 252 258 263 260 265 275 300 300 294 297 293 285
277 275 273 270 268 268 268 267 265 262 261 258 255 253 249 247 243 250 246 242 243 244 250 255 256 259 254 261 254 252 256 258 257 252 258 262 269 268 271 291 290 294 293 291 284
281 280 277 274 272 269 267 265 263 261 260 259 259 259 258 256 251 250 251 246 245 246 244 248 253 256 256 255 250 253 258 256 255 253 259 267 270 266 280 280 279 287 288 288 282
285 282 279 277 275 273 271 268 264 260 259 258 257 258 259 258 251 247 251 250 247 246 242 239 242 246 250 256 251 251 256 259 254 255 261 268 262 268 284 282 280 286 282 285 283
288 287 285 282 279 275 272 267 265 264 262 259 256 255 255 255 253 249 247 246 247 244 240 237 237 243 248 253 250 252 257 255 258 260 263 266 265 267 277 275 282 290 287 292 283
292 290 289 288 284 282 277 272 270 267 261 257 256 255 253 252 250 247 248 246 246 243 239 236 237 240 246 250 251 253 253 258 262 263 264 269 271 272 274 271 280 285 288 286 276
288 287 286 285 284 282 281 279 277 274 268 264 261 256 253 250 249 245 245 246 242 242 239 236 238 237 241 245 251 254 258 260 263 268 268 271 272 271 266 264 274 278 282 279 277
297 294 291 289 289 287 285 282 278 274 271 269 267 260 250 248 246 245 242 242 241 236 240 241 235 245 247 249 252 255 260 264 266 273 272 269 266 268 264 251 264 265 270 267 278
301 299 297 295 292 289 287 284 281 277 271 270 266 261 255 245 245 244 241 237 237 239 236 240 243 245 244 247 249 252 256 259 264 265 267 265 262 263 256 248 252 256 256 259 278
305 301 299 296 293 289 288 286 281 277 271 266 265 262 254 247 243 239 240 238 234 233 235 238 246 250 243 246 248 252 257 266 269 260 259 262 257 255 248 246 243 251 251 264 278
307 304 300 299 298 294 292 287 282 278 276 273 266 261 256 249 239 235 236 237 231 230 231 233 236 237 242 236 237 239 261 253 250 252 255 256 260 252 249 243 241 244 254 271 259
308 304 304 302 300 299 295 288 282 280 280 274 269 264 258 254 245 232 228 230 231 228 227 231 231 232 232 234 235 243 250 253 250 254 255 253 261 256 250 238 240 245 245 251 255
308 306 305 301 301 299 293 287 283 278 278 275 276 275 265 256 251 233 225 223 224 223 224 224 230 232 233 234 231 237 237 245 247 255 256 250 249 244 223 237 237 239 241 249 249
312 312 309 305 302 297 289 284 278 272 276 273 272 274 257 251 253 237 223 216 216 216 215 219 224 223 221 228 226 225 227 236 246 258 259 249 241 143 190 207 220 240 245 240 248
318 316 315 314 313 307 297 288 280 275 268 269 269 252 244 243 244 242 213 208 208 209 208 212 218 220 221 228 226 228 232 242 249 265 270 252 241 188 233 251 239 237 244 241 251
325 329 331 331 325 340 345 350 332 293 278 274 261 253 236 235 215 206 215 202 201 203 204 207 213 217 217 223 225 224 227 233 240 252 248 238 219 180 212 239 244 241 238 248 255
337 347 350 344 322 324 333 349 347 350 335 319 274 250 234 229 217 195 208 203 203 200 200 203 209 212 214 214 217 218 223 228 233 240 232 224 192 196 211 228 237 240 231 230 236
338 352 355 353 327 354 351 350 351 337 334 334 295 252 235 219 214 186 189 205 208 202 199 200 205 207 208 209 214 217 216 219 225 231 231 214 188 198 190 212 213 229 244 234 217
341 344 353 1 342 317 339 344 354 346 341 343 346 270 238 219 220 215 185 177 201 205 201 198 204 205 208 209 212 218 222 229 236 239 243 233 205 198 196 211 205 224 236 232 209
352 349 349 351 340 319 324 331 336 342 329 329 337 303 251 231 229 226 184 194 200 208 204 200 203 201 201 204 206 212 216 222 225 229 228 219 164 184 182 200 212 233 235 227 221
1 358 360 1 354 344 320 323 332 332 341 322 309 319 267 245 239 227 180 179 195 206 208 201 201 198 202 205 208 213 213 216 223 226 225 203 175 160 184 201 211 221 214 231 231
9 10 13 14 17 19 7 346 335 327 329 330 296 280 283 264 246 233 214 170 184 203 207 201 201 198 197 202 205 213 214 218 222 220 217 199 176 178 188 200 202 212 206 236 247
18 12 13 13 13 9 11 1 336 329 337 334 311 309 286 262 249 253 234 194 165 193 210 201 202 197 197 202 204 211 214 213 215 219 198 177 172 177 192 198 195 206 203 225 233
20 19 16 24 23 16 8 10 2 345 332 308 319 304 295 282 242 241 237 210 169 184 206 206 203 197 198 203 204 210 213 214 216 202 192 171 162 181 192 194 193 193 199 238 224